Regional Weather Roundup
Issued by NWS

Home | Current Version | Previous Version | Graphics & Text | Print | Product List | Glossary Off
Versions: 1 2 3 4 5 6 7 8 9 10 11 12 13 14 15 16 17 18 19 20 21 22 23 24 25 26 27 28 29 30 31 32 33 34 35 36 37 38 39 40 41 42 43 44 45 46 47 48 49 50

000
ASUS43 KTOP 230308
RWRKS

WEATHER ROUNDUP FOR KANSAS
NATIONAL WEATHER SERVICE GOODLAND KS
1000 PM CDT FRI MAY 22 2015

NOTE:  "FAIR" INDICATES FEW OR NO CLOUDS BELOW 12,000 FEET WITH NO
SIGNIFICANT WEATHER AND/OR OBSTRUCTIONS TO VISIBILITY.

KSZ001>006-013>018-027>032-041>047-230400-
NORTHWEST KANSAS

CITY           SKY/WX    TMP DP  RH WIND       PRES   REMARKS
GOODLAND       FOG       52  52 100 SE20      30.02S VSB 1/2
HAYS           CLOUDY    55  48  76 SE13      30.11R
HILL CITY      CLOUDY    55  54  96 SE7       30.09R
RUSSELL        CLOUDY    55  55 100 SE13      30.11R FOG
$$

KSZ061>065-074>080-084>089-230400-
SOUTHWEST KANSAS

CITY           SKY/WX    TMP DP  RH WIND       PRES   REMARKS
DODGE CITY     CLOUDY    56  54  93 SE17      30.07S FOG
ELKHART          N/A     57  49  75 SE24        N/A
GARDEN CITY    CLOUDY    56  54  93 SE17G25   30.03R
GREAT BEND     CLOUDY    55  52  88 SE12      30.12R
LIBERAL        CLEAR     57  52  82 S16       30.03R
PRATT          LGT RAIN  54  54 100 SE14      30.12R
$$

KSZ066>073-081>083-090>101-230400-
SOUTHEAST KANSAS

CITY           SKY/WX    TMP DP  RH WIND       PRES   REMARKS
CHANUTE        CLOUDY    61  51  70 E5        30.18R
COFFEYVILLE    CLOUDY    61  56  83 CALM      30.17R
HUTCHINSON     CLOUDY    56  53  90 SE13      30.14S FOG
MEDICINE LODGE   N/A     55  55 100 SE13      30.11S
NEWTON         CLOUDY    54  48  82 SE13      30.18R
PARSONS        CLOUDY    61  54  77 CALM      30.18S
WICHITA INTL   LGT RAIN  55  53  93 SE13      30.15S FOG
WICHITA JABRA  CLOUDY    55  52  89 SE9       30.16R
WICHITA MCCONL CLOUDY    56  53  91 SE14      30.16S
WINFIELD       CLOUDY    55  54  96 SE8       30.17S
$$

KSZ007>012-019>026-033>040-048>060-102>105-230400-
NORTHEAST KANSAS

CITY           SKY/WX    TMP DP  RH WIND       PRES   REMARKS
CONCORDIA      CLOUDY    57  49  74 SE12      30.15S
EMPORIA        CLOUDY    58  50  75 SE6G17    30.17S
LAWRENCE       CLOUDY    60  53  77 E7        30.20S
MANHATTAN      CLOUDY    60  48  64 SE5       30.18R
MARYSVILLE     CLOUDY    59  46  63 SE8       30.19R
OLATHE IND     CLOUDY    60  52  74 E5        30.21R
OLATHE EXE     CLOUDY    60  52  74 SE6       30.20R
SALINA         CLOUDY    59  51  75 E9        30.15S
TOPEKA BILLARD CLOUDY    60  51  72 SE6       30.19S
TOPEKA FORBES  CLOUDY    61  50  67 SE8       30.18S
$$



USA.gov is the U.S. government's official web portal to all federal, state and local government web resources and services.